owner,sensor,date,latitude,longitude,vertical_datum,sea_water_practical_salinity,qcFlag 
LUMCON,ioos:station:LUMCON:101:1,2017-07-01T00:00:00Z,29.2533,-90.6633,1.28,2.7,1111122 
LUMCON,ioos:station:LUMCON:101:1,2017-07-01T00:15:00Z,29.2533,-90.6633,1.28,2.76,1111122 
LUMCON,ioos:station:LUMCON:101:1,2017-07-01T00:30:00Z,29.2533,-90.6633,1.29,2.78,1111122 
LUMCON,ioos:station:LUMCON:101:1,2017-07-01T00:45:00Z,29.2533,-90.6633,1.29,2.81,1111122 
LUMCON,ioos:station:LUMCON:101:1,2017-07-01T01:00:00Z,29.2533,-90.6633,1.29,2.84,1111122 
LUMCON,ioos:station:LUMCON:101:1,2017-07-01T01:15:00Z,29.2533,-90.6633,1.3,2.84,1111122 
LUMCON,ioos:station:LUMCON:101:1,2017-07-01T01:30:00Z,29.2533,-90.6633,1.3,2.84,1111122 
LUMCON,ioos:station:LUMCON:101:1,2017-07-01T01:45:00Z,29.2533,-90.6633,1.29,2.89,1111122 
LUMCON,ioos:station:LUMCON:101:1,2017-07-01T02:00:00Z,29.2533,-90.6633,1.29,2.89,1111122 
LUMCON,ioos:station:LUMCON:101:1,2017-07-01T02:15:00Z,29.2533,-90.6633,1.29,2.87,1111122 
LUMCON,ioos:station:LUMCON:101:1,2017-07-01T02:30:00Z,29.2533,-90.6633,1.29,2.86,1111122 
LUMCON,ioos:station:LUMCON:101:1,2017-07-01T02:45:00Z,29.2533,-90.6633,1.3,2.9,1111122 
LUMCON,ioos:station:LUMCON:101:1,2017-07-01T03:00:00Z,29.2533,-90.6633,1.29,2.9,1111122 
LUMCON,ioos:station:LUMCON:101:1,2017-07-01T03:15:00Z,29.2533,-90.6633,1.29,2.89,1111122 
LUMCON,ioos:station:LUMCON:101:1,2017-07-01T03:30:00Z,29.2533,-90.6633,1.3,2.9,1111122 
LUMCON,ioos:station:LUMCON:101:1,2017-07-01T03:45:00Z,29.2533,-90.6633,1.3,2.9,1111122 
LUMCON,ioos:station:LUMCON:101:1,2017-07-01T04:00:00Z,29.2533,-90.6633,1.3,2.91,1111122 
LUMCON,ioos:station:LUMCON:101:1,2017-07-01T04:15:00Z,29.2533,-90.6633,1.31,2.9,1111122 
LUMCON,ioos:station:LUMCON:101:1,2017-07-01T04:30:00Z,29.2533,-90.6633,1.31,2.89,1111122 
LUMCON,ioos:station:LUMCON:101:1,2017-07-01T04:45:00Z,29.2533,-90.6633,1.31,2.89,1111122 
LUMCON,ioos:station:LUMCON:101:1,2017-07-01T05:00:00Z,29.2533,-90.6633,1.32,2.89,1111122 
LUMCON,ioos:station:LUMCON:101:1,2017-07-01T05:15:00Z,29.2533,-90.6633,1.33,2.76,1111122 
LUMCON,ioos:station:LUMCON:101:1,2017-07-01T05:30:00Z,29.2533,-90.6633,1.33,2.78,1111122 
LUMCON,ioos:station:LUMCON:101:1,2017-07-01T05:45:00Z,29.2533,-90.6633,1.34,2.72,1111122 
LUMCON,ioos:station:LUMCON:101:1,2017-07-01T06:00:00Z,29.2533,-90.6633,1.34,2.71,1111122 
LUMCON,ioos:station:LUMCON:101:1,2017-07-01T06:15:00Z,29.2533,-90.6633,1.35,2.75,1111122 
LUMCON,ioos:station:LUMCON:101:1,2017-07-01T06:30:00Z,29.2533,-90.6633,1.36,2.56,1111122 
LUMCON,ioos:station:LUMCON:101:1,2017-07-01T06:45:00Z,29.2533,-90.6633,1.37,2.56,1111122 
LUMCON,ioos:station:LUMCON:101:1,2017-07-01T07:00:00Z,29.2533,-90.6633,1.37,2.29,1111122 
LUMCON,ioos:station:LUMCON:101:1,2017-07-01T07:15:00Z,29.2533,-90.6633,1.38,1.98,1111122 
LUMCON,ioos:station:LUMCON:101:1,2017-07-01T07:30:00Z,29.2533,-90.6633,1.39,1.95,1111122 
LUMCON,ioos:station:LUMCON:101:1,2017-07-01T07:45:00Z,29.2533,-90.6633,1.41,1.61,1111122 
LUMCON,ioos:station:LUMCON:101:1,2017-07-01T08:00:00Z,29.2533,-90.6633,1.42,1.5,1111122 
LUMCON,ioos:station:LUMCON:101:1,2017-07-01T08:15:00Z,29.2533,-90.6633,1.43,1.46,1111122 
LUMCON,ioos:station:LUMCON:101:1,2017-07-01T08:30:00Z,29.2533,-90.6633,1.44,1.34,1111122 
LUMCON,ioos:station:LUMCON:101:1,2017-07-01T08:45:00Z,29.2533,-90.6633,1.44,1.4,1111122 
LUMCON,ioos:station:LUMCON:101:1,2017-07-01T09:00:00Z,29.2533,-90.6633,1.44,1.52,1111122 
LUMCON,ioos:station:LUMCON:101:1,2017-07-01T09:15:00Z,29.2533,-90.6633,1.44,1.61,1111122 
LUMCON,ioos:station:LUMCON:101:1,2017-07-01T09:30:00Z,29.2533,-90.6633,1.44,1.47,1111122 
LUMCON,ioos:station:LUMCON:101:1,2017-07-01T09:45:00Z,29.2533,-90.6633,1.44,1.44,1111122 
LUMCON,ioos:station:LUMCON:101:1,2017-07-01T10:00:00Z,29.2533,-90.6633,1.46,1.33,1111122 
LUMCON,ioos:station:LUMCON:101:1,2017-07-01T10:15:00Z,29.2533,-90.6633,1.46,1.35,1111122 
LUMCON,ioos:station:LUMCON:101:1,2017-07-01T10:30:00Z,29.2533,-90.6633,1.47,1.34,1111122 
LUMCON,ioos:station:LUMCON:101:1,2017-07-01T10:45:00Z,29.2533,-90.6633,1.48,1.34,1111122 
LUMCON,ioos:station:LUMCON:101:1,2017-07-01T11:00:00Z,29.2533,-90.6633,1.48,1.36,1111122 
LUMCON,ioos:station:LUMCON:101:1,2017-07-01T11:15:00Z,29.2533,-90.6633,1.49,1.36,1111122 
LUMCON,ioos:station:LUMCON:101:1,2017-07-01T11:30:00Z,29.2533,-90.6633,1.49,1.36,1111122 
LUMCON,ioos:station:LUMCON:101:1,2017-07-01T11:45:00Z,29.2533,-90.6633,1.48,1.47,1111122 
LUMCON,ioos:station:LUMCON:101:1,2017-07-01T12:00:00Z,29.2533,-90.6633,1.48,1.54,1111122 
LUMCON,ioos:station:LUMCON:101:1,2017-07-01T12:15:00Z,29.2533,-90.6633,1.48,1.54,1111122 
LUMCON,ioos:station:LUMCON:101:1,2017-07-01T12:30:00Z,29.2533,-90.6633,1.48,1.51,1111122 
LUMCON,ioos:station:LUMCON:101:1,2017-07-01T12:45:00Z,29.2533,-90.6633,1.47,1.43,1111122 
LUMCON,ioos:station:LUMCON:101:1,2017-07-01T13:00:00Z,29.2533,-90.6633,1.47,1.38,1111122 
LUMCON,ioos:station:LUMCON:101:1,2017-07-01T13:15:00Z,29.2533,-90.6633,1.47,1.36,1111122 
LUMCON,ioos:station:LUMCON:101:1,2017-07-01T13:30:00Z,29.2533,-90.6633,1.47,1.34,1111122 
LUMCON,ioos:station:LUMCON:101:1,2017-07-01T13:45:00Z,29.2533,-90.6633,1.47,1.33,1111122 
LUMCON,ioos:station:LUMCON:101:1,2017-07-01T14:00:00Z,29.2533,-90.6633,1.46,1.38,1111122 
LUMCON,ioos:station:LUMCON:101:1,2017-07-01T14:15:00Z,29.2533,-90.6633,1.45,1.59,1111122 
LUMCON,ioos:station:LUMCON:101:1,2017-07-01T14:30:00Z,29.2533,-90.6633,1.45,1.72,1111122 
LUMCON,ioos:station:LUMCON:101:1,2017-07-01T14:45:00Z,29.2533,-90.6633,1.44,1.91,1111122 
LUMCON,ioos:station:LUMCON:101:1,2017-07-01T15:00:00Z,29.2533,-90.6633,1.44,1.93,1111122 
LUMCON,ioos:station:LUMCON:101:1,2017-07-01T15:15:00Z,29.2533,-90.6633,1.44,1.98,1111122 
LUMCON,ioos:station:LUMCON:101:1,2017-07-01T15:30:00Z,29.2533,-90.6633,1.44,2.01,1111122 
LUMCON,ioos:station:LUMCON:101:1,2017-07-01T15:45:00Z,29.2533,-90.6633,1.44,2.01,1111122 
LUMCON,ioos:station:LUMCON:101:1,2017-07-01T16:00:00Z,29.2533,-90.6633,1.44,2.0,1111122 
LUMCON,ioos:station:LUMCON:101:1,2017-07-01T16:15:00Z,29.2533,-90.6633,1.43,1.99,1111122 
LUMCON,ioos:station:LUMCON:101:1,2017-07-01T16:30:00Z,29.2533,-90.6633,1.44,2.03,1111122 
LUMCON,ioos:station:LUMCON:101:1,2017-07-01T16:45:00Z,29.2533,-90.6633,1.43,2.03,1111122 
LUMCON,ioos:station:LUMCON:101:1,2017-07-01T17:00:00Z,29.2533,-90.6633,1.44,2.07,1111122 
LUMCON,ioos:station:LUMCON:101:1,2017-07-01T17:15:00Z,29.2533,-90.6633,1.42,2.08,1111122 
LUMCON,ioos:station:LUMCON:101:1,2017-07-01T17:30:00Z,29.2533,-90.6633,1.4,2.1,1111122 
LUMCON,ioos:station:LUMCON:101:1,2017-07-01T17:45:00Z,29.2533,-90.6633,1.38,2.07,1111122 
LUMCON,ioos:station:LUMCON:101:1,2017-07-01T18:00:00Z,29.2533,-90.6633,1.37,2.13,1111122 
LUMCON,ioos:station:LUMCON:101:1,2017-07-01T18:15:00Z,29.2533,-90.6633,1.35,2.21,1111122 
LUMCON,ioos:station:LUMCON:101:1,2017-07-01T18:30:00Z,29.2533,-90.6633,1.34,2.29,1111122 
LUMCON,ioos:station:LUMCON:101:1,2017-07-01T18:45:00Z,29.2533,-90.6633,1.32,2.36,1111122 
LUMCON,ioos:station:LUMCON:101:1,2017-07-01T19:00:00Z,29.2533,-90.6633,1.32,2.47,1111122 
LUMCON,ioos:station:LUMCON:101:1,2017-07-01T19:15:00Z,29.2533,-90.6633,1.31,2.58,1111122 
LUMCON,ioos:station:LUMCON:101:1,2017-07-01T19:30:00Z,29.2533,-90.6633,1.31,2.57,1111122 
LUMCON,ioos:station:LUMCON:101:1,2017-07-01T19:45:00Z,29.2533,-90.6633,1.28,2.58,1111122 
LUMCON,ioos:station:LUMCON:101:1,2017-07-01T20:00:00Z,29.2533,-90.6633,1.26,2.55,1111122 
LUMCON,ioos:station:LUMCON:101:1,2017-07-01T20:15:00Z,29.2533,-90.6633,1.23,2.55,1111122 
LUMCON,ioos:station:LUMCON:101:1,2017-07-01T20:30:00Z,29.2533,-90.6633,1.2,2.57,1111122 
LUMCON,ioos:station:LUMCON:101:1,2017-07-01T20:45:00Z,29.2533,-90.6633,1.18,2.62,1111122 
LUMCON,ioos:station:LUMCON:101:1,2017-07-01T21:00:00Z,29.2533,-90.6633,1.17,2.68,1111122 
LUMCON,ioos:station:LUMCON:101:1,2017-07-01T21:15:00Z,29.2533,-90.6633,1.16,2.75,1111122 
LUMCON,ioos:station:LUMCON:101:1,2017-07-01T21:30:00Z,29.2533,-90.6633,1.15,2.79,1111122 
LUMCON,ioos:station:LUMCON:101:1,2017-07-01T21:45:00Z,29.2533,-90.6633,1.15,2.8,1111122 
LUMCON,ioos:station:LUMCON:101:1,2017-07-01T22:00:00Z,29.2533,-90.6633,1.14,2.81,1111122 
LUMCON,ioos:station:LUMCON:101:1,2017-07-01T22:15:00Z,29.2533,-90.6633,1.12,2.81,1111122 
LUMCON,ioos:station:LUMCON:101:1,2017-07-01T22:30:00Z,29.2533,-90.6633,1.11,2.84,1111122 
LUMCON,ioos:station:LUMCON:101:1,2017-07-01T22:45:00Z,29.2533,-90.6633,1.1,2.89,1111122 
LUMCON,ioos:station:LUMCON:101:1,2017-07-01T23:00:00Z,29.2533,-90.6633,1.11,2.97,1111122 
LUMCON,ioos:station:LUMCON:101:1,2017-07-01T23:15:00Z,29.2533,-90.6633,1.11,2.98,1111122 
LUMCON,ioos:station:LUMCON:101:1,2017-07-01T23:30:00Z,29.2533,-90.6633,1.1,3.01,1111122 
LUMCON,ioos:station:LUMCON:101:1,2017-07-01T23:45:00Z,29.2533,-90.6633,1.1,3.03,1111122 
LUMCON,ioos:station:LUMCON:101:1,2017-07-02T00:00:00Z,29.2533,-90.6633,1.12,3.07,1111122 
LUMCON,ioos:station:LUMCON:101:1,2017-07-02T00:15:00Z,29.2533,-90.6633,1.13,3.05,1111122 
LUMCON,ioos:station:LUMCON:101:1,2017-07-02T00:30:00Z,29.2533,-90.6633,1.13,3.06,1111122 
LUMCON,ioos:station:LUMCON:101:1,2017-07-02T00:45:00Z,29.2533,-90.6633,1.13,3.07,1111122 
LUMCON,ioos:station:LUMCON:101:1,2017-07-02T01:00:00Z,29.2533,-90.6633,1.13,3.06,1111122 
LUMCON,ioos:station:LUMCON:101:1,2017-07-02T01:15:00Z,29.2533,-90.6633,1.14,3.08,1111122 
LUMCON,ioos:station:LUMCON:101:1,2017-07-02T01:30:00Z,29.2533,-90.6633,1.15,3.1,1111122 
LUMCON,ioos:station:LUMCON:101:1,2017-07-02T01:45:00Z,29.2533,-90.6633,1.16,3.12,1111122 
LUMCON,ioos:station:LUMCON:101:1,2017-07-02T02:00:00Z,29.2533,-90.6633,1.17,3.14,1111122 
LUMCON,ioos:station:LUMCON:101:1,2017-07-02T02:15:00Z,29.2533,-90.6633,1.17,3.16,1111122 
LUMCON,ioos:station:LUMCON:101:1,2017-07-02T02:30:00Z,29.2533,-90.6633,1.17,3.15,1111122 
LUMCON,ioos:station:LUMCON:101:1,2017-07-02T02:45:00Z,29.2533,-90.6633,1.19,3.15,1111122 
LUMCON,ioos:station:LUMCON:101:1,2017-07-02T03:00:00Z,29.2533,-90.6633,1.19,3.14,1111122 
LUMCON,ioos:station:LUMCON:101:1,2017-07-02T03:15:00Z,29.2533,-90.6633,1.21,3.14,1111122 
LUMCON,ioos:station:LUMCON:101:1,2017-07-02T03:30:00Z,29.2533,-90.6633,1.23,2.92,1111122 
LUMCON,ioos:station:LUMCON:101:1,2017-07-02T03:45:00Z,29.2533,-90.6633,1.24,2.86,1111122 
LUMCON,ioos:station:LUMCON:101:1,2017-07-02T04:00:00Z,29.2533,-90.6633,1.26,2.68,1111122 
LUMCON,ioos:station:LUMCON:101:1,2017-07-02T04:15:00Z,29.2533,-90.6633,1.26,2.63,1111122 
LUMCON,ioos:station:LUMCON:101:1,2017-07-02T04:30:00Z,29.2533,-90.6633,1.27,2.44,1111122 
LUMCON,ioos:station:LUMCON:101:1,2017-07-02T04:45:00Z,29.2533,-90.6633,1.27,2.48,1111122 
LUMCON,ioos:station:LUMCON:101:1,2017-07-02T05:00:00Z,29.2533,-90.6633,1.28,2.42,1111122 
LUMCON,ioos:station:LUMCON:101:1,2017-07-02T05:15:00Z,29.2533,-90.6633,1.29,2.21,1111122 
LUMCON,ioos:station:LUMCON:101:1,2017-07-02T05:30:00Z,29.2533,-90.6633,1.29,2.51,1111122 
LUMCON,ioos:station:LUMCON:101:1,2017-07-02T05:45:00Z,29.2533,-90.6633,1.28,2.51,1111122 
LUMCON,ioos:station:LUMCON:101:1,2017-07-02T06:00:00Z,29.2533,-90.6633,1.28,2.44,1111122 
LUMCON,ioos:station:LUMCON:101:1,2017-07-02T06:15:00Z,29.2533,-90.6633,1.28,2.45,1111122 
LUMCON,ioos:station:LUMCON:101:1,2017-07-02T06:30:00Z,29.2533,-90.6633,1.28,2.44,1111122 
LUMCON,ioos:station:LUMCON:101:1,2017-07-02T06:45:00Z,29.2533,-90.6633,1.29,2.41,1111122 
LUMCON,ioos:station:LUMCON:101:1,2017-07-02T07:00:00Z,29.2533,-90.6633,1.3,2.44,1111122 
LUMCON,ioos:station:LUMCON:101:1,2017-07-02T07:15:00Z,29.2533,-90.6633,1.3,2.41,1111122 
LUMCON,ioos:station:LUMCON:101:1,2017-07-02T07:30:00Z,29.2533,-90.6633,1.29,2.31,1111122 
LUMCON,ioos:station:LUMCON:101:1,2017-07-02T07:45:00Z,29.2533,-90.6633,1.3,2.34,1111122 
LUMCON,ioos:station:LUMCON:101:1,2017-07-02T08:00:00Z,29.2533,-90.6633,1.31,2.32,1111122 
LUMCON,ioos:station:LUMCON:101:1,2017-07-02T08:15:00Z,29.2533,-90.6633,1.3,2.33,1111122 
LUMCON,ioos:station:LUMCON:101:1,2017-07-02T08:30:00Z,29.2533,-90.6633,1.31,2.34,1111122 
LUMCON,ioos:station:LUMCON:101:1,2017-07-02T08:45:00Z,29.2533,-90.6633,1.33,2.19,1111122 
LUMCON,ioos:station:LUMCON:101:1,2017-07-02T09:00:00Z,29.2533,-90.6633,1.34,2.04,1111122 
LUMCON,ioos:station:LUMCON:101:1,2017-07-02T09:15:00Z,29.2533,-90.6633,1.35,1.82,1111122 
LUMCON,ioos:station:LUMCON:101:1,2017-07-02T09:30:00Z,29.2533,-90.6633,1.35,1.93,1111122 
LUMCON,ioos:station:LUMCON:101:1,2017-07-02T09:45:00Z,29.2533,-90.6633,1.36,1.63,1111122 
LUMCON,ioos:station:LUMCON:101:1,2017-07-02T10:00:00Z,29.2533,-90.6633,1.37,1.72,1111122 
LUMCON,ioos:station:LUMCON:101:1,2017-07-02T10:15:00Z,29.2533,-90.6633,1.37,1.75,1111122 
LUMCON,ioos:station:LUMCON:101:1,2017-07-02T10:30:00Z,29.2533,-90.6633,1.38,1.63,1111122 
LUMCON,ioos:station:LUMCON:101:1,2017-07-02T10:45:00Z,29.2533,-90.6633,1.38,1.8,1111122 
LUMCON,ioos:station:LUMCON:101:1,2017-07-02T11:00:00Z,29.2533,-90.6633,1.4,1.5,1111122 
LUMCON,ioos:station:LUMCON:101:1,2017-07-02T11:15:00Z,29.2533,-90.6633,1.4,1.61,1111122 
LUMCON,ioos:station:LUMCON:101:1,2017-07-02T11:30:00Z,29.2533,-90.6633,1.41,1.7,1111122 
LUMCON,ioos:station:LUMCON:101:1,2017-07-02T11:45:00Z,29.2533,-90.6633,1.41,1.67,1111122 
LUMCON,ioos:station:LUMCON:101:1,2017-07-02T12:00:00Z,29.2533,-90.6633,1.41,1.48,1111122 
LUMCON,ioos:station:LUMCON:101:1,2017-07-02T12:15:00Z,29.2533,-90.6633,1.42,1.39,1111122 
LUMCON,ioos:station:LUMCON:101:1,2017-07-02T12:30:00Z,29.2533,-90.6633,1.44,1.36,1111122 
LUMCON,ioos:station:LUMCON:101:1,2017-07-02T12:45:00Z,29.2533,-90.6633,1.45,1.21,1111122 
LUMCON,ioos:station:LUMCON:101:1,2017-07-02T13:00:00Z,29.2533,-90.6633,1.47,1.17,1111122 
LUMCON,ioos:station:LUMCON:101:1,2017-07-02T13:15:00Z,29.2533,-90.6633,1.48,1.09,1111122 
LUMCON,ioos:station:LUMCON:101:1,2017-07-02T13:30:00Z,29.2533,-90.6633,1.47,1.05,1111122 
LUMCON,ioos:station:LUMCON:101:1,2017-07-02T13:45:00Z,29.2533,-90.6633,1.47,1.09,1111122 
LUMCON,ioos:station:LUMCON:101:1,2017-07-02T14:00:00Z,29.2533,-90.6633,1.47,1.06,1111122 
LUMCON,ioos:station:LUMCON:101:1,2017-07-02T14:15:00Z,29.2533,-90.6633,1.47,1.1,1111122 
LUMCON,ioos:station:LUMCON:101:1,2017-07-02T14:30:00Z,29.2533,-90.6633,1.47,1.11,1111122 
LUMCON,ioos:station:LUMCON:101:1,2017-07-02T14:45:00Z,29.2533,-90.6633,1.47,1.15,1111122 
LUMCON,ioos:station:LUMCON:101:1,2017-07-02T15:00:00Z,29.2533,-90.6633,1.46,1.13,1111122 
LUMCON,ioos:station:LUMCON:101:1,2017-07-02T15:15:00Z,29.2533,-90.6633,1.45,1.08,1111122 
LUMCON,ioos:station:LUMCON:101:1,2017-07-02T15:30:00Z,29.2533,-90.6633,1.44,1.06,1111122 
LUMCON,ioos:station:LUMCON:101:1,2017-07-02T15:45:00Z,29.2533,-90.6633,1.42,1.05,1111122 
LUMCON,ioos:station:LUMCON:101:1,2017-07-02T16:00:00Z,29.2533,-90.6633,1.4,1.08,1111122 
LUMCON,ioos:station:LUMCON:101:1,2017-07-02T16:15:00Z,29.2533,-90.6633,1.4,1.12,1111122 
LUMCON,ioos:station:LUMCON:101:1,2017-07-02T16:30:00Z,29.2533,-90.6633,1.39,1.17,1111122 
LUMCON,ioos:station:LUMCON:101:1,2017-07-02T16:45:00Z,29.2533,-90.6633,1.39,1.23,1111122 
LUMCON,ioos:station:LUMCON:101:1,2017-07-02T17:00:00Z,29.2533,-90.6633,1.37,1.32,1111122 
LUMCON,ioos:station:LUMCON:101:1,2017-07-02T17:15:00Z,29.2533,-90.6633,1.37,1.35,1111122 
LUMCON,ioos:station:LUMCON:101:1,2017-07-02T17:30:00Z,29.2533,-90.6633,1.37,1.38,1111122 
LUMCON,ioos:station:LUMCON:101:1,2017-07-02T17:45:00Z,29.2533,-90.6633,1.36,1.39,1111122 
LUMCON,ioos:station:LUMCON:101:1,2017-07-02T18:00:00Z,29.2533,-90.6633,1.36,1.48,1111122 
LUMCON,ioos:station:LUMCON:101:1,2017-07-02T18:15:00Z,29.2533,-90.6633,1.36,1.65,1111122 
LUMCON,ioos:station:LUMCON:101:1,2017-07-02T18:30:00Z,29.2533,-90.6633,1.35,1.83,1111122 
LUMCON,ioos:station:LUMCON:101:1,2017-07-02T18:45:00Z,29.2533,-90.6633,1.34,1.97,1111122 
LUMCON,ioos:station:LUMCON:101:1,2017-07-02T19:00:00Z,29.2533,-90.6633,1.32,2.07,1111122 
LUMCON,ioos:station:LUMCON:101:1,2017-07-02T19:15:00Z,29.2533,-90.6633,1.31,2.16,1111122 
LUMCON,ioos:station:LUMCON:101:1,2017-07-02T19:30:00Z,29.2533,-90.6633,1.3,2.23,1111122 
LUMCON,ioos:station:LUMCON:101:1,2017-07-02T19:45:00Z,29.2533,-90.6633,1.29,2.33,1111122 
LUMCON,ioos:station:LUMCON:101:1,2017-07-02T20:00:00Z,29.2533,-90.6633,1.28,2.4,1111122 
LUMCON,ioos:station:LUMCON:101:1,2017-07-02T20:15:00Z,29.2533,-90.6633,1.28,2.47,1111122 
LUMCON,ioos:station:LUMCON:101:1,2017-07-02T20:30:00Z,29.2533,-90.6633,1.27,2.58,1111122 
LUMCON,ioos:station:LUMCON:101:1,2017-07-02T20:45:00Z,29.2533,-90.6633,1.26,2.59,1111122 
LUMCON,ioos:station:LUMCON:101:1,2017-07-02T21:00:00Z,29.2533,-90.6633,1.25,2.65,1111122 
LUMCON,ioos:station:LUMCON:101:1,2017-07-02T21:15:00Z,29.2533,-90.6633,1.26,2.7,1111122 
LUMCON,ioos:station:LUMCON:101:1,2017-07-02T21:30:00Z,29.2533,-90.6633,1.25,2.78,1111122 
LUMCON,ioos:station:LUMCON:101:1,2017-07-02T21:45:00Z,29.2533,-90.6633,1.24,2.84,1111122 
LUMCON,ioos:station:LUMCON:101:1,2017-07-02T22:00:00Z,29.2533,-90.6633,1.23,2.88,1111122 
LUMCON,ioos:station:LUMCON:101:1,2017-07-02T22:15:00Z,29.2533,-90.6633,1.22,2.93,1111122 
LUMCON,ioos:station:LUMCON:101:1,2017-07-02T22:30:00Z,29.2533,-90.6633,1.22,2.94,1111122 
LUMCON,ioos:station:LUMCON:101:1,2017-07-02T22:45:00Z,29.2533,-90.6633,1.22,2.98,1111122 
LUMCON,ioos:station:LUMCON:101:1,2017-07-02T23:00:00Z,29.2533,-90.6633,1.22,3.03,1111122 
LUMCON,ioos:station:LUMCON:101:1,2017-07-02T23:15:00Z,29.2533,-90.6633,1.21,3.07,1111122 
LUMCON,ioos:station:LUMCON:101:1,2017-07-02T23:30:00Z,29.2533,-90.6633,1.21,3.04,1111122 
LUMCON,ioos:station:LUMCON:101:1,2017-07-02T23:45:00Z,29.2533,-90.6633,1.21,3.06,1111122 
LUMCON,ioos:station:LUMCON:101:1,2017-07-03T00:00:00Z,29.2533,-90.6633,1.21,3.06,1111122 
LUMCON,ioos:station:LUMCON:101:1,2017-07-03T00:15:00Z,29.2533,-90.6633,1.21,3.1,1111122 
LUMCON,ioos:station:LUMCON:101:1,2017-07-03T00:30:00Z,29.2533,-90.6633,1.22,3.08,1111122 
LUMCON,ioos:station:LUMCON:101:1,2017-07-03T00:45:00Z,29.2533,-90.6633,1.22,3.09,1111122 
LUMCON,ioos:station:LUMCON:101:1,2017-07-03T01:00:00Z,29.2533,-90.6633,1.22,3.09,1111122 
LUMCON,ioos:station:LUMCON:101:1,2017-07-03T01:15:00Z,29.2533,-90.6633,1.23,3.09,1111122 
LUMCON,ioos:station:LUMCON:101:1,2017-07-03T01:30:00Z,29.2533,-90.6633,1.24,3.03,1111122 
LUMCON,ioos:station:LUMCON:101:1,2017-07-03T01:45:00Z,29.2533,-90.6633,1.24,2.88,1111122 
LUMCON,ioos:station:LUMCON:101:1,2017-07-03T02:00:00Z,29.2533,-90.6633,1.24,2.71,1111122 
LUMCON,ioos:station:LUMCON:101:1,2017-07-03T02:15:00Z,29.2533,-90.6633,1.25,2.68,1111122 
LUMCON,ioos:station:LUMCON:101:1,2017-07-03T02:30:00Z,29.2533,-90.6633,1.26,2.62,1111122 
LUMCON,ioos:station:LUMCON:101:1,2017-07-03T02:45:00Z,29.2533,-90.6633,1.27,2.41,1111122 
LUMCON,ioos:station:LUMCON:101:1,2017-07-03T03:00:00Z,29.2533,-90.6633,1.29,2.17,1111122 
LUMCON,ioos:station:LUMCON:101:1,2017-07-03T03:15:00Z,29.2533,-90.6633,1.29,1.9,1111122 
LUMCON,ioos:station:LUMCON:101:1,2017-07-03T03:30:00Z,29.2533,-90.6633,1.3,1.81,1111122 
LUMCON,ioos:station:LUMCON:101:1,2017-07-03T03:45:00Z,29.2533,-90.6633,1.31,1.71,1111122 
LUMCON,ioos:station:LUMCON:101:1,2017-07-03T04:00:00Z,29.2533,-90.6633,1.32,1.67,1111122 
LUMCON,ioos:station:LUMCON:101:1,2017-07-03T04:15:00Z,29.2533,-90.6633,1.33,1.67,1111122 
LUMCON,ioos:station:LUMCON:101:1,2017-07-03T04:30:00Z,29.2533,-90.6633,1.33,1.68,1111122 
LUMCON,ioos:station:LUMCON:101:1,2017-07-03T04:45:00Z,29.2533,-90.6633,1.34,1.72,1111122 
LUMCON,ioos:station:LUMCON:101:1,2017-07-03T05:00:00Z,29.2533,-90.6633,1.35,1.74,1111122 
LUMCON,ioos:station:LUMCON:101:1,2017-07-03T05:15:00Z,29.2533,-90.6633,1.36,1.78,1111122 
LUMCON,ioos:station:LUMCON:101:1,2017-07-03T05:30:00Z,29.2533,-90.6633,1.37,1.83,1111122 
LUMCON,ioos:station:LUMCON:101:1,2017-07-03T05:45:00Z,29.2533,-90.6633,1.37,1.85,1111122 
LUMCON,ioos:station:LUMCON:101:1,2017-07-03T06:00:00Z,29.2533,-90.6633,1.38,1.93,1111122 
LUMCON,ioos:station:LUMCON:101:1,2017-07-03T06:15:00Z,29.2533,-90.6633,1.39,1.91,1111122 
LUMCON,ioos:station:LUMCON:101:1,2017-07-03T06:30:00Z,29.2533,-90.6633,1.4,1.92,1111122 
LUMCON,ioos:station:LUMCON:101:1,2017-07-03T06:45:00Z,29.2533,-90.6633,1.4,1.9,1111122 
LUMCON,ioos:station:LUMCON:101:1,2017-07-03T07:00:00Z,29.2533,-90.6633,1.41,1.9,1111122 
LUMCON,ioos:station:LUMCON:101:1,2017-07-03T07:15:00Z,29.2533,-90.6633,1.41,1.87,1111122 
LUMCON,ioos:station:LUMCON:101:1,2017-07-03T07:30:00Z,29.2533,-90.6633,1.42,1.84,1111122 
LUMCON,ioos:station:LUMCON:101:1,2017-07-03T07:45:00Z,29.2533,-90.6633,1.43,1.85,1111122 
LUMCON,ioos:station:LUMCON:101:1,2017-07-03T08:00:00Z,29.2533,-90.6633,1.43,1.87,1111122 
LUMCON,ioos:station:LUMCON:101:1,2017-07-03T08:15:00Z,29.2533,-90.6633,1.43,1.86,1111122 
LUMCON,ioos:station:LUMCON:101:1,2017-07-03T08:30:00Z,29.2533,-90.6633,1.43,1.86,1111122 
LUMCON,ioos:station:LUMCON:101:1,2017-07-03T08:45:00Z,29.2533,-90.6633,1.44,1.87,1111122 
LUMCON,ioos:station:LUMCON:101:1,2017-07-03T09:00:00Z,29.2533,-90.6633,1.44,1.87,1111122 
LUMCON,ioos:station:LUMCON:101:1,2017-07-03T09:15:00Z,29.2533,-90.6633,1.45,1.86,1111122 
LUMCON,ioos:station:LUMCON:101:1,2017-07-03T09:30:00Z,29.2533,-90.6633,1.46,1.88,1111122 
LUMCON,ioos:station:LUMCON:101:1,2017-07-03T09:45:00Z,29.2533,-90.6633,1.46,1.88,1111122 
LUMCON,ioos:station:LUMCON:101:1,2017-07-03T10:00:00Z,29.2533,-90.6633,1.47,1.87,1111122 
LUMCON,ioos:station:LUMCON:101:1,2017-07-03T10:15:00Z,29.2533,-90.6633,1.47,1.85,1111122 
LUMCON,ioos:station:LUMCON:101:1,2017-07-03T10:30:00Z,29.2533,-90.6633,1.47,1.84,1111122 
LUMCON,ioos:station:LUMCON:101:1,2017-07-03T10:45:00Z,29.2533,-90.6633,1.47,1.83,1111122 
LUMCON,ioos:station:LUMCON:101:1,2017-07-03T11:00:00Z,29.2533,-90.6633,1.47,1.83,1111122 
LUMCON,ioos:station:LUMCON:101:1,2017-07-03T11:15:00Z,29.2533,-90.6633,1.48,1.83,1111122 
LUMCON,ioos:station:LUMCON:101:1,2017-07-03T11:30:00Z,29.2533,-90.6633,1.47,1.84,1111122 
LUMCON,ioos:station:LUMCON:101:1,2017-07-03T11:45:00Z,29.2533,-90.6633,1.46,1.83,1111122 
LUMCON,ioos:station:LUMCON:101:1,2017-07-03T12:00:00Z,29.2533,-90.6633,1.46,1.81,1111122 
LUMCON,ioos:station:LUMCON:101:1,2017-07-03T12:15:00Z,29.2533,-90.6633,1.46,1.81,1111122 
LUMCON,ioos:station:LUMCON:101:1,2017-07-03T12:30:00Z,29.2533,-90.6633,1.46,1.8,1111122 
LUMCON,ioos:station:LUMCON:101:1,2017-07-03T12:45:00Z,29.2533,-90.6633,1.46,1.8,1111122 
LUMCON,ioos:station:LUMCON:101:1,2017-07-03T13:00:00Z,29.2533,-90.6633,1.46,1.78,1111122 
LUMCON,ioos:station:LUMCON:101:1,2017-07-03T13:15:00Z,29.2533,-90.6633,1.46,1.79,1111122 
LUMCON,ioos:station:LUMCON:101:1,2017-07-03T13:30:00Z,29.2533,-90.6633,1.47,1.77,1111122 
LUMCON,ioos:station:LUMCON:101:1,2017-07-03T13:45:00Z,29.2533,-90.6633,1.47,1.78,1111122 
LUMCON,ioos:station:LUMCON:101:1,2017-07-03T14:00:00Z,29.2533,-90.6633,1.46,1.78,1111122 
LUMCON,ioos:station:LUMCON:101:1,2017-07-03T14:15:00Z,29.2533,-90.6633,1.47,1.77,1111122 
LUMCON,ioos:station:LUMCON:101:1,2017-07-03T14:30:00Z,29.2533,-90.6633,1.47,1.78,1111122 
LUMCON,ioos:station:LUMCON:101:1,2017-07-03T14:45:00Z,29.2533,-90.6633,1.47,1.79,1111122 
LUMCON,ioos:station:LUMCON:101:1,2017-07-03T15:00:00Z,29.2533,-90.6633,1.46,1.79,1111122 
LUMCON,ioos:station:LUMCON:101:1,2017-07-03T15:15:00Z,29.2533,-90.6633,1.46,1.78,1111122 
LUMCON,ioos:station:LUMCON:101:1,2017-07-03T15:30:00Z,29.2533,-90.6633,1.45,1.78,1111122 
LUMCON,ioos:station:LUMCON:101:1,2017-07-03T15:45:00Z,29.2533,-90.6633,1.44,1.77,1111122 
LUMCON,ioos:station:LUMCON:101:1,2017-07-03T16:00:00Z,29.2533,-90.6633,1.43,1.8,1111122 
LUMCON,ioos:station:LUMCON:101:1,2017-07-03T16:15:00Z,29.2533,-90.6633,1.43,1.82,1111122 
LUMCON,ioos:station:LUMCON:101:1,2017-07-03T16:30:00Z,29.2533,-90.6633,1.43,1.84,1111122 
LUMCON,ioos:station:LUMCON:101:1,2017-07-03T16:45:00Z,29.2533,-90.6633,1.42,1.84,1111122 
LUMCON,ioos:station:LUMCON:101:1,2017-07-03T17:00:00Z,29.2533,-90.6633,1.4,1.83,1111122 
LUMCON,ioos:station:LUMCON:101:1,2017-07-03T17:15:00Z,29.2533,-90.6633,1.39,1.83,1111122 
LUMCON,ioos:station:LUMCON:101:1,2017-07-03T17:30:00Z,29.2533,-90.6633,1.38,1.85,1111122 
LUMCON,ioos:station:LUMCON:101:1,2017-07-03T17:45:00Z,29.2533,-90.6633,1.36,1.88,1111122 
LUMCON,ioos:station:LUMCON:101:1,2017-07-03T18:00:00Z,29.2533,-90.6633,1.35,1.9,1111122 
LUMCON,ioos:station:LUMCON:101:1,2017-07-03T18:15:00Z,29.2533,-90.6633,1.34,1.91,1111122 